Regional Weather Roundup
Issued by NWS

Home | Current Version | Previous Version | Graphics & Text | Print | Product List | Glossary On
Versions: 1 2 3 4 5 6 7 8 9 10 11 12 13 14 15 16 17 18 19 20 21 22 23 24 25 26 27 28 29 30 31 32 33 34 35 36 37 38 39 40 41 42 43 44 45 46 47 48 49 50
000
ASUS43 KFSD 310702
RWRSD

WEATHER ROUNDUP FOR SOUTH DAKOTA
NATIONAL WEATHER SERVICE SIOUX FALLS SD
200 AM CDT TUE MAY 31 2016

NOTE: "FAIR" INDICATES FEW OR NO CLOUDS BELOW 12,000 FEET WITH NO
SIGNIFICANT WEATHER AND/OR OBSTRUCTIONS TO VISIBILITY.


SDZ001>005-009-010-012>017-310800-
NORTHWEST AND NORTH CENTRAL SOUTH DAKOTA

CITY           SKY/WX    TMP DP  RH WIND       PRES   REMARKS
BUFFALO          N/A     46  36  68 W7        29.91F
FAITH            N/A     49  43  80 W15       29.94F
MOBRIDGE       CLOUDY    57  51  80 NW18G28   29.81F
$$

SDZ012>016-024>037-041>051-057-063-072>074-310800-
SOUTHWEST AND SOUTH CENTRAL SOUTH DAKOTA

CITY           SKY/WX    TMP DP  RH WIND       PRES   REMARKS
RAPID CTY ARPT CLOUDY    53  37  54 NW17G25   30.03F
PIERRE         CLOUDY    54  49  83 NW18      29.87F
CUSTER         CLOUDY    45  28  51 NW13G22   30.10F
PHILIP         CLEAR     50  45  83 W8        29.98R
PINE RIDGE     CLOUDY    51  44  77 N3        30.07R
WINNER         FAIR      58  53  84 NW17G26   29.89F
$$

SDZ004>011-016>023-039-040-310800-
NORTHEAST SOUTH DAKOTA

CITY           SKY/WX    TMP DP  RH WIND       PRES   REMARKS
ABERDEEN       CLOUDY    56  54  93 W6        29.78S
WATERTOWN      CLOUDY    62  59  90 S8        29.77R
BROOKINGS      CLOUDY    62  59  90 S10       29.81F
SISSETON         N/A     59  58  96 SE7       29.72F
$$

SDZ017-020-022-023-036>040-048>070-310800-
SOUTHEAST SOUTH DAKOTA

CITY           SKY/WX    TMP DP  RH WIND       PRES   REMARKS
SIOUX FALLS    LGT RAIN  62  58  86 W6        29.82S
HURON          MOCLDY    59  56  89 W9        29.83R
MITCHELL       CLOUDY    63  59  87 W6        29.84R
YANKTON        CLOUDY    63  57  82 CALM      29.85R
$$

ABBREVIATIONS USED IN REMARKS
   TC - TEMPERATURE IN CELSIUS
  WCI - WIND CHILL INDEX
   HX - HEAT INDEX
  VSB - VISIBILITY





USA.gov is the U.S. government's official web portal to all federal, state and local government web resources and services.